Champaign, IL

8:49 PM CDT on October 19, 2017 (GMT -0500)
Univ Of Illinois-Willard

Weather History for KCMI - December, 2012

Change the Weather History Date:

Monday, December 3, 2012

  Actual Average Record
Temperature  
Mean Temperature 65 °F 33 °F  
Max Temperature 73 °F 41 °F 73 °F (2012)
Min Temperature 57 °F 25 °F 9 °F (2006)
Degree Days  
Heating Degree Days 0 32  
Month to date heating degree days 23 94  
Since 1 July heating degree days 1216 1258  
Cooling Degree Days 0 0  
Month to date cooling degree days 0 0  
Year to date cooling degree days 1290 945  
Growing Degree Days 14 (Base 50)    
Moisture  
Dew Point 58 °F    
Average Humidity 79    
Maximum Humidity 100    
Minimum Humidity 57    
Precipitation  
Precipitation 0.00 in 0.08 in 0.19 in (2010)
Month to date precipitation T 0.27  
Year to date precipitation 26.53 37.47  
Sea Level Pressure  
Sea Level Pressure 29.98 in    
Wind  
Wind Speed 19 mph (South)    
Max Wind Speed 35 mph    
Max Gust Speed 46 mph    
Visibility 6 miles    
Events Fog    
T = Trace of Precipitation, MM = Missing Value Source: NWS Daily Summary

Daily Weather History Graph

Daily Weather History Graph

Search for Another Location

Airport or City:

Trip Planner

Search our weather history database for the weather conditions in past years. The results will help you decide how hot, cold, wet, or windy it might be!

Date:

Astronomy

Dec. 03, 2012 Rise Set
Actual Time 6:58 AM CST 4:27 PM CST
Civil Twilight 6:28 AM CST 4:58 PM CST
Nautical Twilight 5:54 AM CST 5:31 PM CST
Astronomical Twilight 5:21 AM CST 6:04 PM CST
Moon 9:14 PM CST (12/3) 10:21 AM CST (12/3)
Length of Visible Light 10h 29m
Length of Day
9h 29m
Waning Gibbous, 78% of the Moon is Illuminated
Dec 3
Waning Gibbous
Dec 6
Last Quarter
Dec 13
New
Dec 19
First Quarter
Dec 28
Full

Hourly Weather History & Observations

Time (CST) Temp. Dew Point Humidity Pressure Visibility Wind Dir Wind Speed Gust Speed Precip Events Conditions
12:16 AM 57.2 °F 57.2 °F 100% 30.05 in 0.5 mi SSE 10.4 mph - N/A Fog Fog
12:49 AM 57.2 °F 57.2 °F 100% 30.04 in 0.2 mi South 13.8 mph - N/A Fog Fog
12:53 AM 57.9 °F 57.0 °F 97% 30.04 in 0.2 mi South 11.5 mph - N/A Fog Fog
1:08 AM 57.2 °F 57.2 °F 100% 30.04 in 0.5 mi South 10.4 mph - N/A Fog Fog
1:19 AM 57.2 °F 57.2 °F 100% 30.05 in 2.0 mi South 11.5 mph - N/A   Overcast
1:31 AM 59.0 °F 57.2 °F 94% 30.05 in 3.0 mi South 11.5 mph - N/A   Overcast
1:53 AM 59.0 °F 57.9 °F 96% 30.04 in 4.0 mi South 12.7 mph - N/A   Overcast
2:53 AM 60.1 °F 59.0 °F 96% 30.03 in 4.0 mi South 12.7 mph - N/A   Overcast
3:53 AM 60.1 °F 59.0 °F 96% 30.02 in 4.0 mi South 11.5 mph - N/A   Overcast
4:53 AM 60.1 °F 59.0 °F 96% 30.01 in 4.0 mi South 11.5 mph - N/A   Overcast
5:53 AM 61.0 °F 59.0 °F 93% 30.01 in 6.0 mi South 17.3 mph - N/A   Overcast
6:34 AM 59.0 °F 57.2 °F 94% 30.01 in 4.0 mi South 12.7 mph - N/A   Scattered Clouds
6:53 AM 59.0 °F 57.9 °F 96% 30.01 in 3.0 mi South 15.0 mph - N/A   Partly Cloudy
7:10 AM 59.0 °F 57.2 °F 94% 30.01 in 3.0 mi South 16.1 mph - N/A   Mostly Cloudy
7:53 AM 61.0 °F 59.0 °F 93% 30.00 in 3.0 mi South 16.1 mph - N/A   Overcast
8:53 AM 63.0 °F 60.1 °F 90% 30.00 in 6.0 mi South 15.0 mph 26.5 mph N/A   Mostly Cloudy
9:18 AM 64.4 °F 60.8 °F 88% 29.99 in 7.0 mi South 18.4 mph 24.2 mph N/A   Clear
9:53 AM 64.9 °F 60.1 °F 84% 29.99 in 10.0 mi South 21.9 mph 27.6 mph N/A   Partly Cloudy
10:53 AM 69.1 °F 60.1 °F 73% 29.96 in 10.0 mi South 20.7 mph 28.8 mph N/A   Clear
11:53 AM 70.0 °F 59.0 °F 68% 29.93 in 10.0 mi South 26.5 mph 35.7 mph N/A   Scattered Clouds
12:53 PM 71.1 °F 60.1 °F 68% 29.91 in 10.0 mi South 24.2 mph 32.2 mph N/A   Partly Cloudy
1:53 PM 71.1 °F 57.9 °F 63% 29.89 in 10.0 mi South 23.0 mph 36.8 mph N/A   Clear
2:53 PM 71.1 °F 55.9 °F 59% 29.87 in 10.0 mi South 26.5 mph 36.8 mph N/A   Clear
3:53 PM 69.1 °F 57.0 °F 65% 29.88 in 10.0 mi South 28.8 mph 35.7 mph N/A   Clear
4:53 PM 64.0 °F 55.9 °F 75% 29.90 in 10.0 mi South 23.0 mph 32.2 mph N/A   Clear
5:51 PM 64.4 °F 55.4 °F 73% 29.95 in 10.0 mi SSW 18.4 mph - N/A   Mostly Cloudy
5:53 PM 64.0 °F 55.9 °F 75% 29.95 in 10.0 mi SSW 19.6 mph - N/A   Mostly Cloudy
6:29 PM 62.6 °F 55.4 °F 77% 29.95 in 10.0 mi South 19.6 mph - N/A   Mostly Cloudy
6:53 PM 63.0 °F 55.9 °F 78% 29.94 in 10.0 mi South 19.6 mph - N/A   Partly Cloudy
7:53 PM 63.0 °F 55.9 °F 78% 29.93 in 10.0 mi South 21.9 mph 29.9 mph N/A   Clear
8:53 PM 62.1 °F 55.9 °F 80% 29.94 in 10.0 mi SSW 20.7 mph 26.5 mph N/A   Clear
9:53 PM 63.0 °F 57.0 °F 81% 29.94 in 10.0 mi South 21.9 mph 32.2 mph N/A   Overcast
10:53 PM 63.0 °F 55.9 °F 78% 29.94 in 10.0 mi South 20.7 mph - N/A   Mostly Cloudy